Location: ?????
(42.2640°N, 43.4211°E)
Time: 14:31:13
(UTC+00:00)

SeaSat 1 - Pass Details

Date: 07 August 2020
Orbit: 744 x 748 km, 108.0° (Epoch: 19 September)

Event Time Altitude Azimuth Distance (km) Brightness Sun altitude
Rises 23:57:37 0° 36° (NE) 3,199 7.3 -20.1°
Reaches altitude 10° 00:00:10 10° 47° (NE) 2,271 6.2 -19.8°
Maximum altitude 00:04:29 30° 109° (ESE) 1,316 3.9 -19.2°
Enters shadow 00:08:09 13° 166° (SSE) 2,041 4.4 -18.8°
